Weather History for Roseau, MN

Change the Weather History Date:

Saturday, September 28, 2013

  Actual Average Record
Temperature  
Mean Temperature 48 °F -  
Max Temperature 51 °F 60 °F 85 °F (1952)
Min Temperature 46 °F 35 °F 20 °F (1949)
Degree Days  
Heating Degree Days 16    
Moisture  
Dew Point 44 °F    
Average Humidity 83    
Maximum Humidity 87    
Minimum Humidity 81    
Precipitation  
Precipitation 1.56 in - - ()
Sea Level Pressure  
Sea Level Pressure 29.66 in    
Wind  
Wind Speed 7 mph (WNW)    
Max Wind Speed 17 mph    
Max Gust Speed 26 mph    
Visibility 9 miles    
Events Rain    
Averages and records for this station are not official NWS values.
T = Trace of Precipitation, MM = Missing Value Source: NWS Daily Summary

Daily Weather History Graph

Daily Weather History Graph

Search for Another Location

Airport:

Trip Planner

Search our weather history database for the weather conditions in past years. The results will help you decide how hot, cold, wet, or windy it might be!

Date:

Astronomy

Sep. 28, 2013 Rise Set
Actual Time 7:18 AM CDT 7:07 PM CDT
Civil Twilight 6:46 AM CDT 7:38 PM CDT
Nautical Twilight 6:10 AM CDT 8:15 PM CDT
Astronomical Twilight 5:32 AM CDT 8:52 PM CDT
Moon 12:40 AM CDT (9/28) 3:50 PM CDT (9/28)
Length of Visible Light 12h 51m
Length of Day
11h 48m
Waning Crescent, 36% of the Moon is Illuminated
Sep 28
Waning Crescent
Oct 4
New
Oct 11
First Quarter
Oct 18
Full
Oct 26
Last Quarter

Hourly Weather History & Observations

Time (CDT) Temp. Windchill Dew Point Humidity Pressure Visibility Wind Dir Wind Speed Gust Speed Precip Events Conditions
12:14 AM 51.8 °F - 46.4 °F 82% 29.75 in 10.0 mi NW 6.9 mph - N/A   Overcast
12:34 AM 51.8 °F - 46.4 °F 82% 29.76 in 10.0 mi WNW 4.6 mph - N/A   Overcast
12:54 AM 51.8 °F - 46.4 °F 82% 29.75 in 10.0 mi NW 4.6 mph - N/A   Overcast
1:14 AM 51.8 °F - 46.4 °F 82% 29.77 in 10.0 mi Calm Calm - N/A   Overcast
1:34 AM 51.8 °F - 46.4 °F 82% 29.77 in 10.0 mi Calm Calm - N/A   Overcast
1:54 AM 51.8 °F - 46.4 °F 82% 29.77 in 10.0 mi Calm Calm - N/A   Overcast
2:14 AM 51.8 °F - 46.4 °F 82% 29.74 in 10.0 mi Calm Calm - N/A   Drizzle
2:34 AM 51.8 °F - 46.4 °F 82% 29.73 in 7.0 mi NNW 3.5 mph - 0.01 in Rain Rain
2:54 AM 51.8 °F - 46.4 °F 82% 29.71 in 7.0 mi North 3.5 mph - 0.03 in Rain Rain
3:14 AM 51.8 °F - 46.4 °F 82% 29.67 in 7.0 mi North 9.2 mph - 0.02 in Rain Rain
3:34 AM 51.8 °F - 46.4 °F 82% 29.69 in 10.0 mi ENE 5.8 mph - 0.04 in Rain Light Rain
3:54 AM 51.8 °F - 46.4 °F 82% 29.68 in 10.0 mi NNE 3.5 mph - 0.06 in Rain Rain
4:14 AM 51.8 °F - 46.4 °F 82% 29.67 in 7.0 mi NE 4.6 mph - 0.03 in Rain Rain
4:34 AM 51.8 °F - 46.4 °F 82% 29.68 in 3.0 mi North 3.5 mph - 0.05 in Rain Heavy Rain
4:54 AM 51.8 °F - 46.4 °F 82% 29.69 in 3.0 mi NW 4.6 mph - 0.08 in Rain Heavy Rain
5:14 AM 51.8 °F - 46.4 °F 82% 29.69 in 4.0 mi NW 8.1 mph - 0.04 in Rain Rain
5:34 AM 51.8 °F - 46.4 °F 82% 29.69 in 5.0 mi WNW 4.6 mph - 0.08 in Rain Rain
5:54 AM 51.8 °F - 46.4 °F 82% 29.70 in 5.0 mi Calm Calm - 0.12 in Rain Heavy Rain
6:14 AM 51.8 °F - 46.4 °F 82% 29.67 in 10.0 mi Calm Calm - 0.04 in Rain Rain
6:34 AM 51.8 °F - 46.4 °F 82% 29.66 in 7.0 mi NNW 6.9 mph - 0.09 in Rain Rain
6:54 AM 50.0 °F - 44.6 °F 82% 29.62 in 10.0 mi North 10.4 mph - 0.13 in Rain Rain
7:14 AM 50.0 °F - 44.6 °F 82% 29.61 in 10.0 mi NNW 9.2 mph - 0.04 in Rain Rain
7:34 AM 50.0 °F - 44.6 °F 82% 29.59 in 10.0 mi North 8.1 mph - 0.08 in Rain Light Rain
7:54 AM 50.0 °F - 44.6 °F 82% 29.59 in 10.0 mi NNE 6.9 mph - 0.11 in Rain Rain
8:14 AM 50.0 °F - 44.6 °F 82% 29.53 in 10.0 mi North 11.5 mph - 0.03 in Rain Rain
8:34 AM 50.0 °F - 44.6 °F 82% 29.54 in 10.0 mi NNW 10.4 mph - 0.07 in Rain Rain
8:54 AM 50.0 °F - 44.6 °F 82% 29.55 in 3.0 mi NW 11.5 mph - 0.11 in Rain Heavy Rain
9:15 AM 50.0 °F - 44.6 °F 82% 29.59 in 4.0 mi West 8.1 mph - 0.04 in Rain Heavy Rain
9:34 AM 50.0 °F - 44.6 °F 82% 29.59 in 10.0 mi WNW 10.4 mph - 0.08 in Rain Rain
9:54 AM 50.0 °F - 44.6 °F 82% 29.57 in 10.0 mi WNW 10.4 mph 16.1 mph 0.11 in Rain Light Rain
10:13 AM 50.0 °F - 44.6 °F 82% 29.58 in 10.0 mi West 12.7 mph 17.3 mph 0.03 in Rain Light Rain
10:34 AM 50.0 °F - 44.6 °F 82% 29.57 in 10.0 mi WNW 13.8 mph 18.4 mph 0.07 in Rain Rain
10:54 AM 50.0 °F - 44.6 °F 82% 29.57 in 10.0 mi WNW 12.7 mph 17.3 mph 0.10 in Rain Light Rain
11:14 AM 50.0 °F - 44.6 °F 82% 29.56 in 10.0 mi NW 13.8 mph - 0.03 in Rain Light Rain
11:34 AM 50.0 °F - 44.6 °F 82% 29.56 in 10.0 mi NW 12.7 mph 18.4 mph 0.07 in Rain Light Rain
11:54 AM 50.0 °F - 44.6 °F 82% 29.56 in 10.0 mi NW 16.1 mph 23.0 mph 0.10 in   Light Drizzle
12:14 PM 50.0 °F - 44.6 °F 82% 29.56 in 10.0 mi WNW 17.3 mph 23.0 mph 0.03 in Rain Light Rain
12:34 PM 50.0 °F - 44.6 °F 82% 29.55 in 10.0 mi WNW 15.0 mph 21.9 mph 0.06 in Rain Light Rain
12:54 PM 50.0 °F - 44.6 °F 82% 29.58 in 10.0 mi WNW 13.8 mph 21.9 mph 0.08 in Rain Rain
1:14 PM 50.0 °F - 44.6 °F 82% 29.57 in 10.0 mi WNW 10.4 mph 18.4 mph 0.02 in Rain Rain
1:34 PM 50.0 °F - 44.6 °F 82% 29.58 in 10.0 mi WNW 15.0 mph 19.6 mph 0.05 in Rain Rain
1:54 PM 50.0 °F - 44.6 °F 82% 29.58 in 10.0 mi West 13.8 mph 21.9 mph 0.07 in Rain Light Rain
2:14 PM 50.0 °F - 44.6 °F 82% 29.58 in 10.0 mi West 15.0 mph 21.9 mph 0.02 in Rain Light Rain
2:34 PM 48.2 °F - 44.6 °F 87% 29.59 in 10.0 mi WNW 13.8 mph 23.0 mph 0.05 in   Drizzle
2:54 PM 48.2 °F - 44.6 °F 87% 29.60 in 10.0 mi WNW 13.8 mph 23.0 mph 0.07 in Rain Light Rain
3:14 PM 50.0 °F - 44.6 °F 82% 29.61 in 10.0 mi WNW 12.7 mph 18.4 mph 0.02 in Rain Light Rain
3:34 PM 48.2 °F - 44.6 °F 87% 29.62 in 7.0 mi West 13.8 mph 17.3 mph 0.04 in   Light Drizzle
3:54 PM 48.2 °F - 44.6 °F 87% 29.63 in 10.0 mi WNW 13.8 mph 20.7 mph 0.06 in Rain Rain
4:14 PM 48.2 °F - 44.6 °F 87% 29.65 in 5.0 mi West 12.7 mph 26.5 mph 0.02 in Rain Light Rain
4:34 PM 48.2 °F - 42.8 °F 82% 29.66 in 7.0 mi WNW 13.8 mph 21.9 mph 0.04 in Rain Light Rain
4:54 PM 48.2 °F - 42.8 °F 82% 29.68 in 7.0 mi WNW 12.7 mph 20.7 mph 0.06 in Rain Light Rain
5:14 PM 46.4 °F 41.1 °F 42.8 °F 87% 29.68 in 10.0 mi WNW 11.5 mph 20.7 mph 0.02 in Rain Light Rain
5:34 PM 48.2 °F - 42.8 °F 82% 29.69 in 10.0 mi WNW 10.4 mph 18.4 mph 0.04 in   Scattered Clouds
5:54 PM 46.4 °F 41.5 °F 42.8 °F 87% 29.70 in 10.0 mi West 10.4 mph 16.1 mph 0.06 in   Scattered Clouds
6:14 PM 46.4 °F 42.9 °F 42.8 °F 87% 29.71 in 10.0 mi West 6.9 mph - 0.01 in Rain Light Rain
6:34 PM 46.4 °F 42.4 °F 42.8 °F 87% 29.71 in 10.0 mi West 8.1 mph - 0.02 in Rain Light Rain
6:53 PM 46.4 °F 41.9 °F 42.8 °F 87% 29.73 in 10.0 mi WSW 9.2 mph - 0.04 in   Drizzle
7:14 PM 46.4 °F 41.9 °F 42.8 °F 87% 29.73 in 10.0 mi WSW 9.2 mph - 0.02 in   Light Drizzle
7:34 PM 46.4 °F 42.9 °F 42.8 °F 87% 29.73 in 10.0 mi WSW 6.9 mph - 0.03 in   Light Drizzle
7:54 PM 46.4 °F 44.3 °F 42.8 °F 87% 29.74 in 10.0 mi WSW 4.6 mph - 0.05 in   Mostly Cloudy
8:14 PM 46.4 °F 44.3 °F 42.8 °F 87% 29.74 in 10.0 mi SW 4.6 mph - 0.01 in   Scattered Clouds
8:34 PM 46.4 °F 44.3 °F 42.8 °F 87% 29.74 in 10.0 mi SSW 4.6 mph - 0.02 in   Scattered Clouds
8:54 PM 46.4 °F 43.5 °F 42.8 °F 87% 29.74 in 10.0 mi South 5.8 mph - 0.03 in   Scattered Clouds
9:14 PM 46.4 °F 44.3 °F 41.0 °F 81% 29.74 in 10.0 mi South 4.6 mph - 0.02 in   Scattered Clouds
9:35 PM 46.4 °F 42.9 °F 41.0 °F 81% 29.74 in 10.0 mi South 6.9 mph - 0.02 in   Clear
9:54 PM 46.4 °F 43.5 °F 41.0 °F 81% 29.74 in 10.0 mi South 5.8 mph - 0.03 in   Clear
10:14 PM 46.4 °F 42.4 °F 41.0 °F 81% 29.73 in 10.0 mi South 8.1 mph - 0.01 in   Clear
10:34 PM 46.4 °F 41.5 °F 42.8 °F 87% 29.73 in 10.0 mi SSE 10.4 mph - 0.02 in   Clear
10:54 PM 46.4 °F 42.4 °F 42.8 °F 87% 29.73 in 10.0 mi South 8.1 mph - 0.03 in   Scattered Clouds
11:14 PM 46.4 °F 42.4 °F 42.8 °F 87% 29.73 in 10.0 mi South 8.1 mph - 0.01 in   Mostly Cloudy
11:34 PM 46.4 °F 42.4 °F 42.8 °F 87% 29.73 in 10.0 mi South 8.1 mph - 0.02 in   Light Drizzle
11:54 PM 46.4 °F 42.4 °F 42.8 °F 87% 29.73 in 10.0 mi South 8.1 mph - 0.03 in   Overcast